When you browse on this site, cookies collect data to enhance your experience and personalize the content and advertising you see.
Visit our Privacy Policy to learn more. By continuing to use the site, you agree to this use of cookies and data.
  • Em Portugal
  • Lista de países
  • Para 7 dias
  • Temperatura da água
  • Mapa do tempo
  • Widgets de tempo
  • user-avatar
    Iniciar Sessão

    Previsão horária em Kostyushino

    Hoje, 21 Agosto, Quarta-feira

    Tempo Temperatura Precipitação Vento Pressão Humidade
    00:00 +16°C° 0 mm 2 m/s 754 mmHg 97%
    01:00 +15°C° 0 mm 2 m/s 754 mmHg 97%
    02:00 +15°C° 0 mm 1 m/s 754 mmHg 97%
    03:00 +15°C° 0 mm 1 m/s 755 mmHg 97%
    04:00 +14°C° 0 mm 1 m/s 755 mmHg 96%
    05:00 +14°C° 0 mm 1 m/s 755 mmHg 96%
    06:00 +16°C° 0 mm 1 m/s 755 mmHg 92%
    07:00 +18°C° 0 mm 1 m/s 755 mmHg 88%
    08:00 +17°C° 0 mm 0 m/s 756 mmHg 83%
    09:00 +19°C° 0 mm 0 m/s 756 mmHg 77%
    10:00 +20°C° 0 mm 0 m/s 756 mmHg 70%
    11:00 +22°C° 0 mm 0 m/s 756 mmHg 63%
    12:00 +22°C° 0 mm 0 m/s 756 mmHg 61%
    13:00 +22°C° 0 mm 0 m/s 755 mmHg 59%
    14:00 +22°C° 0 mm 0 m/s 755 mmHg 58%
    15:00 +23°C° 0 mm 1 m/s 755 mmHg 64%
    16:00 +22°C° 0 mm 1 m/s 754 mmHg 69%
    17:00 +22°C° 0 mm 1 m/s 754 mmHg 75%
    18:00 +20°C° 0 mm 2 m/s 754 mmHg 78%
    19:00 +19°C° 0 mm 2 m/s 753 mmHg 80%
    20:00 +18°C° 0 mm 2 m/s 753 mmHg 83%
    21:00 +18°C° 0.1 mm 3 m/s 752 mmHg 83%
    22:00 +18°C° 0.1 mm 3 m/s 752 mmHg 82%
    23:00 +18°C° 0.1 mm 4 m/s 751 mmHg 82%

    Amanhã, 22 Agosto, Quinta-feira

    Tempo Temperatura Precipitação Vento Pressão Humidade
    00:00 +18°C° 0.3 mm 4 m/s 751 mmHg 87%
    01:00 +18°C° 0.3 mm 4 m/s 750 mmHg 92%
    02:00 +18°C° 0.3 mm 4 m/s 750 mmHg 96%
    03:00 +18°C° 0.6 mm 4 m/s 749 mmHg 97%
    04:00 +19°C° 0.6 mm 4 m/s 749 mmHg 97%
    05:00 +19°C° 0.6 mm 4 m/s 748 mmHg 97%
    06:00 +18°C° 0.5 mm 4 m/s 749 mmHg 96%
    07:00 +17°C° 0.5 mm 5 m/s 749 mmHg 95%
    08:00 +17°C° 0.5 mm 5 m/s 749 mmHg 94%
    09:00 +16°C° 0.1 mm 5 m/s 750 mmHg 93%
    10:00 +16°C° 0.1 mm 5 m/s 751 mmHg 91%
    11:00 +15°C° 0.1 mm 5 m/s 751 mmHg 89%
    12:00 +17°C° 0 mm 4 m/s 752 mmHg 83%
    13:00 +18°C° 0 mm 4 m/s 752 mmHg 76%
    14:00 +19°C° 0 mm 4 m/s 753 mmHg 69%
    15:00 +19°C° 0 mm 4 m/s 753 mmHg 70%
    16:00 +19°C° 0 mm 3 m/s 753 mmHg 71%
    17:00 +20°C° 0 mm 2 m/s 753 mmHg 72%
    18:00 +18°C° 0 mm 3 m/s 753 mmHg 76%
    19:00 +16°C° 0 mm 3 m/s 754 mmHg 81%
    20:00 +13°C° 0 mm 3 m/s 754 mmHg 85%
    21:00 +14°C° 0 mm 2 m/s 754 mmHg 87%
    22:00 +13°C° 0 mm 2 m/s 754 mmHg 88%
    23:00 +13°C° 0 mm 2 m/s 755 mmHg 90%

    Depois de amanhã, 23 Agosto, Sexta-feira

    Tempo Temperatura Precipitação Vento Pressão Humidade
    00:00 +12°C° 0 mm 2 m/s 755 mmHg 91%
    01:00 +12°C° 0 mm 2 m/s 755 mmHg 93%
    02:00 +12°C° 0 mm 2 m/s 756 mmHg 95%
    03:00 +12°C° 0 mm 2 m/s 756 mmHg 95%
    04:00 +12°C° 0 mm 2 m/s 756 mmHg 96%
    05:00 +10°C° 0 mm 2 m/s 756 mmHg 96%
    06:00 +13°C° 0 mm 2 m/s 756 mmHg 90%
    07:00 +15°C° 0 mm 2 m/s 756 mmHg 83%
    08:00 +17°C° 0 mm 3 m/s 756 mmHg 76%
    09:00 +18°C° 0 mm 3 m/s 756 mmHg 71%
    10:00 +19°C° 0 mm 3 m/s 756 mmHg 67%
    11:00 +20°C° 0 mm 4 m/s 756 mmHg 62%
    12:00 +20°C° 0 mm 3 m/s 756 mmHg 60%
    13:00 +20°C° 0 mm 3 m/s 756 mmHg 58%
    14:00 +21°C° 0 mm 3 m/s 756 mmHg 57%
    15:00 +21°C° 0 mm 3 m/s 756 mmHg 61%
    16:00 +20°C° 0 mm 2 m/s 756 mmHg 65%
    17:00 +20°C° 0 mm 2 m/s 755 mmHg 69%
    18:00 +18°C° 0 mm 2 m/s 755 mmHg 74%
    19:00 +16°C° 0 mm 2 m/s 755 mmHg 79%
    20:00 +14°C° 0 mm 2 m/s 755 mmHg 84%
    21:00 +14°C° 0 mm 2 m/s 755 mmHg 84%
    22:00 +13°C° 0 mm 2 m/s 755 mmHg 84%
    23:00 +13°C° 0 mm 2 m/s 756 mmHg 85%

    24 Agosto, Sábado

    Tempo Temperatura Precipitação Vento Pressão Humidade
    00:00 +13°C° 0 mm 2 m/s 755 mmHg 83%
    01:00 +13°C° 0 mm 2 m/s 755 mmHg 82%
    02:00 +13°C° 0 mm 2 m/s 755 mmHg 81%
    03:00 +13°C° 0 mm 2 m/s 755 mmHg 85%
    04:00 +12°C° 0 mm 2 m/s 755 mmHg 89%
    05:00 +12°C° 0 mm 2 m/s 755 mmHg 93%
    06:00 +13°C° 0 mm 3 m/s 755 mmHg 87%
    07:00 +16°C° 0 mm 3 m/s 755 mmHg 81%
    08:00 +17°C° 0 mm 3 m/s 755 mmHg 75%
    09:00 +18°C° 0 mm 3 m/s 754 mmHg 72%
    10:00 +19°C° 0 mm 4 m/s 754 mmHg 69%
    11:00 +21°C° 0 mm 4 m/s 754 mmHg 66%
    12:00 +21°C° 0 mm 4 m/s 754 mmHg 65%
    13:00 +21°C° 0 mm 4 m/s 753 mmHg 64%
    14:00 +22°C° 0 mm 4 m/s 753 mmHg 63%
    15:00 +22°C° 0 mm 4 m/s 753 mmHg 66%
    16:00 +21°C° 0 mm 3 m/s 752 mmHg 68%
    17:00 +21°C° 0 mm 3 m/s 752 mmHg 71%
    18:00 +20°C° 0 mm 3 m/s 751 mmHg 74%
    19:00 +19°C° 0 mm 4 m/s 751 mmHg 76%
    20:00 +17°C° 0 mm 4 m/s 751 mmHg 79%
    21:00 +17°C° 0.2 mm 4 m/s 751 mmHg 84%
    22:00 +17°C° 0.2 mm 4 m/s 751 mmHg 88%
    23:00 +15°C° 0.2 mm 4 m/s 751 mmHg 93%

    25 Agosto, Domingo

    Tempo Temperatura Precipitação Vento Pressão Humidade
    00:00 +15°C° 0 mm 4 m/s 751 mmHg 94%
    01:00 +14°C° 0 mm 4 m/s 750 mmHg 96%
    02:00 +13°C° 0 mm 3 m/s 750 mmHg 97%
    03:00 +13°C° 0 mm 3 m/s 751 mmHg 97%
    04:00 +12°C° 0 mm 3 m/s 751 mmHg 97%
    05:00 +12°C° 0 mm 3 m/s 751 mmHg 98%
    06:00 +13°C° 0 mm 3 m/s 751 mmHg 93%
    07:00 +14°C° 0 mm 4 m/s 751 mmHg 89%
    08:00 +15°C° 0 mm 4 m/s 752 mmHg 84%
    09:00 +17°C° 0 mm 4 m/s 752 mmHg 77%
    10:00 +17°C° 0 mm 5 m/s 752 mmHg 70%
    11:00 +17°C° 0 mm 5 m/s 752 mmHg 64%
    12:00 +17°C° 0.1 mm 5 m/s 753 mmHg 64%
    13:00 +17°C° 0.1 mm 5 m/s 753 mmHg 65%
    14:00 +17°C° 0.1 mm 5 m/s 753 mmHg 66%
    15:00 +17°C° 0 mm 4 m/s 754 mmHg 70%
    16:00 +17°C° 0 mm 3 m/s 754 mmHg 73%
    17:00 +17°C° 0 mm 3 m/s 754 mmHg 77%
    18:00 +15°C° 0 mm 2 m/s 755 mmHg 82%
    19:00 +14°C° 0 mm 2 m/s 755 mmHg 87%
    20:00 +12°C° 0 mm 2 m/s 756 mmHg 93%
    21:00 +10°C° 0 mm 2 m/s 756 mmHg 93%
    22:00 +9°C° 0 mm 2 m/s 757 mmHg 94%
    23:00 +8°C° 0 mm 2 m/s 757 mmHg 95%

    26 Agosto, Segunda-feira

    Tempo Temperatura Precipitação Vento Pressão Humidade
    00:00 +9°C° 0 mm 1 m/s 757 mmHg 95%
    01:00 +8°C° 0 mm 1 m/s 758 mmHg 95%
    02:00 +7°C° 0 mm 1 m/s 758 mmHg 95%
    03:00 +7°C° 0 mm 1 m/s 758 mmHg 95%
    04:00 +7°C° 0 mm 1 m/s 758 mmHg 95%
    05:00 +7°C° 0 mm 1 m/s 759 mmHg 95%
    06:00 +9°C° 0 mm 1 m/s 759 mmHg 88%
    07:00 +11°C° 0 mm 1 m/s 759 mmHg 81%
    08:00 +13°C° 0 mm 1 m/s 759 mmHg 75%
    09:00 +14°C° 0 mm 1 m/s 759 mmHg 69%
    10:00 +16°C° 0 mm 1 m/s 759 mmHg 64%
    11:00 +18°C° 0 mm 1 m/s 759 mmHg 58%
    12:00 +19°C° 0 mm 1 m/s 759 mmHg 56%
    13:00 +19°C° 0 mm 1 m/s 759 mmHg 54%
    14:00 +19°C° 0 mm 2 m/s 758 mmHg 53%
    15:00 +19°C° 0 mm 1 m/s 758 mmHg 58%
    16:00 +19°C° 0 mm 1 m/s 757 mmHg 62%
    17:00 +19°C° 0 mm 1 m/s 757 mmHg 67%
    18:00 +16°C° 0 mm 2 m/s 757 mmHg 72%
    19:00 +14°C° 0 mm 2 m/s 757 mmHg 76%
    20:00 +12°C° 0 mm 2 m/s 757 mmHg 80%
    21:00 +12°C° 0 mm 2 m/s 757 mmHg 80%
    22:00 +10°C° 0 mm 2 m/s 757 mmHg 81%
    23:00 +10°C° 0 mm 2 m/s 757 mmHg 81%
    Mostrar mais